This is the latest recevied weather packets stored in our database for station/object HS2LXA-13. If no packets are shown the sender has not sent any weather packets the latest 1 day(s).
| Time | Temp. | Humidity | Pressure | Rain* | Wind** | Luminosity | Snow |
|---|---|---|---|---|---|---|---|
| 1778094616 | 30° C | 83% | 1007.9 hPa | 0 mm | - | 0 W/m² | - |
| 1778092209 | 30° C | 82% | 1008.1 hPa | 0 mm | - | 0 W/m² | - |
| 1778091608 | 30° C | 82% | 1008.2 hPa | 0 mm | - | 0 W/m² | - |
| 1778089805 | 30° C | 82% | 1008.5 hPa | 0 mm | - | 0 W/m² | - |
| 1778088608 | 30° C | 82% | 1008.5 hPa | 0 mm | - | 0 W/m² | - |
| 1778085595 | 30° C | 83% | 1008.7 hPa | 0 mm | - | 0 W/m² | - |
| 1778083792 | 30° C | 88% | 1009.1 hPa | 0 mm | - | 0 W/m² | - |
| 1778082587 | 30° C | 92% | 1009.5 hPa | 0 mm | - | 0 W/m² | - |
| 1778081384 | 30° C | 92% | 1009.5 hPa | 0 mm | - | 0 W/m² | - |
| 1778080782 | 30° C | 89% | 1009.5 hPa | 0 mm | - | 0 W/m² | - |
| 1778077777 | 30.56° C | 82% | 1009.2 hPa | 0 mm | - | 0 W/m² | - |
| 1778076574 | 30.56° C | 82% | 1008.9 hPa | 0 mm | - | 0 W/m² | - |
| 1778075974 | 30.56° C | 83% | 1008.9 hPa | 0 mm | - | 0 W/m² | - |
| 1778075372 | 30.56° C | 82% | 1008.7 hPa | 0 mm | - | 0 W/m² | - |
| 1778074770 | 30.56° C | 83% | 1008.8 hPa | 0 mm | - | 0 W/m² | - |
| 1778071163 | 31.11° C | 86% | 1008 hPa | 0 mm | - | 0 W/m² | - |
| 1778070562 | 31.11° C | 85% | 1007.9 hPa | 0 mm | - | 0 W/m² | - |
| 1778069360 | 31.11° C | 85% | 1007.8 hPa | 0 mm | - | 0 W/m² | - |
| 1778068152 | 30.56° C | 84% | 1007.6 hPa | 0 mm | - | 0 W/m² | - |
| 1778067552 | 31.11° C | 83% | 1007.4 hPa | 0 mm | - | 0 W/m² | - |
| 1778066950 | 31.67° C | 83% | 1007.3 hPa | 0 mm | - | 0 W/m² | - |
| 1778064046 | 31.67° C | 81% | 1007.2 hPa | 0 mm | - | 0 W/m² | - |
| 1778063444 | 32.22° C | 80% | 1007.1 hPa | 0 mm | - | 0 W/m² | - |
| 1778061037 | 32.78° C | 79% | 1007.3 hPa | 0 mm | - | 0 W/m² | - |
| 1778059832 | 33.33° C | 79% | 1007.1 hPa | 0 mm | - | 0 W/m² | - |
* Rain latest hour (hover to see other rain measurements)
** Current wind speed in m/s (hover to see current wind gust speed)